Location: Góry Miechowskie
(50.3599°N, 20.1803°E)
Time: 20:32:44
(UTC+00:00)

Cosmos 2219 - Pass Details

Date: 27 September 2024
Orbit: 831 x 860 km, 71.1° (Epoch: 13 October)

Event Time Altitude Azimuth Distance (km) Brightness Sun altitude
Exits shadow 03:50:59 - 248° (WSW) 2,649 5.2 -7.6°
Reaches altitude 10° 03:51:29 10° 250° (WSW) 2,481 5.0 -7.6°
Maximum altitude 03:56:36 33° 314° (NW) 1,409 4.1 -6.7°
Drops below altitude 10° 04:01:47 10° 18° (NNE) 2,506 6.0 -5.9°
Sets 04:04:31 0° 28° (NNE) 3,448 6.9 -5.5°
